STARLINK-34828

Last updated on Tue Sep 16 2025 00:02:07 GMT+0000 (Coordinated Universal Time)

1 65353U 25190C 25257.67254461 -.00606060 00000+0 -64871-2 0 9992 2 65353 53.1591 269.4974 0001613 44.8721 315.2425 15.65099618 2752
UTC large
Height (km)
Speed (km/s)
/
Latitude / Longitude
Inclination (degrees)
Orbital Period (minutes)
Azimuth
Elevation
Range (km)
Doppler Factor

Next 0 passes for location: London (51.5072 / 0.1276)

Sorry there are no passes over London.